Regional Weather Roundup
Issued by NWS

Home | Current Version | Previous Version | Graphics & Text | Print | Product List | Glossary On
Versions: 1 2 3 4 5 6 7 8 9 10 11 12 13 14 15 16 17 18 19 20 21 22 23 24 25 26 27 28 29 30 31 32 33 34 35 36 37 38 39 40 41 42 43 44 45 46 47 48 49 50
000
ASUS43 KTOP 291259
RWRKS

WEATHER ROUNDUP FOR KANSAS
NATIONAL WEATHER SERVICE GOODLAND KS
800 AM CDT SUN MAR 29 2015

NOTE:  "FAIR" INDICATES FEW OR NO CLOUDS BELOW 12,000 FEET WITH NO
SIGNIFICANT WEATHER AND/OR OBSTRUCTIONS TO VISIBILITY.

KSZ001>006-013>018-027>032-041>047-291400-
NORTHWEST KANSAS

CITY           SKY/WX    TMP DP  RH WIND       PRES   REMARKS
GOODLAND       CLEAR     46  30  53 N18       30.11R
HAYS           CLEAR     55  34  44 N18       29.99R
HILL CITY      PTCLDY    51  34  52 N8        30.03R
RUSSELL        CLEAR     55  40  56 N18G31    29.95
$$

KSZ061>065-074>080-084>089-291400-
SOUTHWEST KANSAS

CITY           SKY/WX    TMP DP  RH WIND       PRES   REMARKS
DODGE CITY     CLEAR     53  37  54 N29G37    29.98R
ELKHART          N/A     56  28  34 N16         N/A
GARDEN CITY    CLEAR     50  37  61 N23       30.01R
GREAT BEND     CLEAR     46  39  76 NW6       29.95R
LIBERAL        CLEAR     55  32  41 NW22G29   30.00R
$$

KSZ066>073-081>083-090>101-291400-
SOUTHEAST KANSAS

CITY           SKY/WX    TMP DP  RH WIND       PRES   REMARKS
CHANUTE        CLEAR     44  37  76 S16       29.95R
COFFEYVILLE    CLEAR     43  36  76 S9        29.95S
HUTCHINSON     MOCLDY    48  42  80 SE8       29.94R
MEDICINE LODGE   N/A     42  40  92 N6        29.96R
NEWTON         MOCLDY    48  39  71 NW10      30.01R
PARSONS        CLEAR     43  37  79 S10       29.96R
WICHITA INTL   MOCLDY    48  42  80 SW6       29.98R
WICHITA JABRA  MOCLDY    49  42  77 VRB7G23   29.99R
WICHITA MCCONL PTCLDY    48  43  81 SW13      29.96R
WINFIELD       CLEAR     47  42  83 S12       29.93R
$$

KSZ007>012-019>026-033>040-048>060-102>105-291400-
NORTHEAST KANSAS

CITY           SKY/WX    TMP DP  RH WIND       PRES   REMARKS
CONCORDIA      MOCLDY    45  40  82 SW3       29.95R
EMPORIA        MOCLDY    45  40  82 VRB5      30.00R
LAWRENCE       CLOUDY    42  35  76 S7        30.00R
MANHATTAN      CLOUDY    47  42  83 CALM      29.95R
OLATHE IND     MOCLDY    41  35  79 S8G24     30.00R
OLATHE EXE     MOCLDY    39  35  86 S14       29.96R WCI  31
SALINA         PTCLDY    51  42  71 SW5       29.93R
TOPEKA BILLARD CLOUDY    44  37  76 NW7       30.04R
TOPEKA FORBES  CLOUDY    44  38  79 SE6       29.99R
$$


USA.gov is the U.S. government's official web portal to all federal, state and local government web resources and services.